Location: Choisy
(48.7685°N, 2.4187°E)
Time: 09:13:52
(UTC+00:00)

ATLAS 3B R/B - Pass Details

Date: 08 December 2023
Orbit: 947 x 1247 km, 63.8° (Epoch: 10 February)

Event Time Altitude Azimuth Distance (km) Brightness Sun altitude
Exits shadow 04:27:39 47° 336° (NNW) 1,511 3.2 -28.9°
Drops below altitude 10° 04:34:31 10° 38° (NE) 3,169 5.6 -27.8°
Sets 04:37:30 0° 44° (NE) 4,163 6.3 -27.3°
